Weather History for KRRT - November, 2013

Change the Weather History Date:

Friday, November 15, 2013

  Actual Average Record
Temperature  
Mean Temperature 36 °F -  
Max Temperature 44 °F 34 °F 62 °F (1953)
Min Temperature 28 °F 18 °F 1 °F (2002)
Degree Days  
Heating Degree Days 29    
Moisture  
Dew Point 32 °F    
Average Humidity 82    
Maximum Humidity 93    
Minimum Humidity 70    
Precipitation  
Precipitation 0.00 in - - ()
Sea Level Pressure  
Sea Level Pressure 29.59 in    
Wind  
Wind Speed 6 mph (SSW)    
Max Wind Speed 15 mph    
Max Gust Speed 24 mph    
Visibility 10 miles    
Events Rain    
Averages and records for this station are not official NWS values.
T = Trace of Precipitation, MM = Missing Value Source: NWS Daily Summary

Daily Weather History Graph

Daily Weather History Graph

Search for Another Location

Airport or City:

Trip Planner

Search our weather history database for the weather conditions in past years. The results will help you decide how hot, cold, wet, or windy it might be!

Date:

Astronomy

Nov. 15, 2013 Rise Set
Actual Time 7:31 AM CST 4:40 PM CST
Civil Twilight 6:56 AM CST 5:15 PM CST
Nautical Twilight 6:17 AM CST 5:53 PM CST
Astronomical Twilight 5:40 AM CST 6:30 PM CST
Moon 3:45 PM CST (11/15) 5:19 AM CST (11/15)
Length of Visible Light 10h 18m
Length of Day
9h 09m
Waxing Gibbous, 96% of the Moon is Illuminated
Nov 15
Waxing Gibbous
Nov 17
Full
Nov 25
Last Quarter
Dec 2
New
Dec 9
First Quarter

Hourly Weather History & Observations

Time (CST) Temp. Windchill Dew Point Humidity Pressure Visibility Wind Dir Wind Speed Gust Speed Precip Events Conditions
12:14 AM 33.8 °F 27.7 °F 30.2 °F 87% 29.70 in 10.0 mi West 6.9 mph - N/A   Overcast
12:34 AM 33.8 °F 29.6 °F 30.2 °F 87% 29.70 in 10.0 mi West 4.6 mph - N/A   Overcast
12:54 AM 33.8 °F 29.6 °F 28.4 °F 81% 29.70 in 10.0 mi West 4.6 mph - N/A   Overcast
1:14 AM 33.8 °F 27.7 °F 28.4 °F 81% 29.70 in 10.0 mi West 6.9 mph - N/A   Overcast
1:34 AM 33.8 °F 28.6 °F 28.4 °F 81% 29.70 in 10.0 mi West 5.8 mph - N/A   Overcast
1:54 AM 32.0 °F 28.7 °F 28.4 °F 87% 29.71 in 10.0 mi West 3.5 mph - N/A   Scattered Clouds
2:14 AM 30.2 °F 24.3 °F 26.6 °F 86% 29.72 in 10.0 mi West 5.8 mph - N/A   Clear
2:34 AM 30.2 °F 24.3 °F 26.6 °F 86% 29.71 in 10.0 mi WSW 5.8 mph - N/A   Scattered Clouds
2:54 AM 30.2 °F 25.4 °F 26.6 °F 86% 29.72 in 10.0 mi SW 4.6 mph - N/A   Mostly Cloudy
3:14 AM 30.2 °F 25.4 °F 26.6 °F 86% 29.71 in 7.0 mi SW 4.6 mph - N/A   Overcast
3:34 AM 30.2 °F 25.4 °F 26.6 °F 86% 29.71 in 10.0 mi WSW 4.6 mph - N/A   Overcast
3:54 AM 30.2 °F 25.4 °F 26.6 °F 86% 29.71 in 10.0 mi WSW 4.6 mph - N/A   Overcast
4:14 AM 30.2 °F 26.7 °F 26.6 °F 86% 29.71 in 10.0 mi WSW 3.5 mph - N/A   Overcast
4:34 AM 30.2 °F - 26.6 °F 86% 29.70 in 10.0 mi Calm Calm - N/A   Overcast
4:54 AM 30.2 °F - 28.4 °F 93% 29.69 in 10.0 mi Calm Calm - N/A   Overcast
5:14 AM 30.2 °F - 28.4 °F 93% 29.69 in 10.0 mi Calm Calm - N/A   Overcast
5:34 AM 30.2 °F 26.7 °F 26.6 °F 86% 29.69 in 10.0 mi SSW 3.5 mph - N/A   Overcast
5:54 AM 30.2 °F 25.4 °F 26.6 °F 86% 29.69 in 10.0 mi SSW 4.6 mph - N/A   Overcast
6:14 AM 30.2 °F 26.7 °F 26.6 °F 86% 29.70 in 7.0 mi SSW 3.5 mph - N/A   Mostly Cloudy
6:34 AM 28.4 °F 23.3 °F 24.8 °F 86% 29.69 in 7.0 mi SSW 4.6 mph - N/A   Scattered Clouds
6:54 AM 28.4 °F 23.3 °F 24.8 °F 86% 29.69 in 7.0 mi SSW 4.6 mph - N/A   Clear
7:14 AM 28.4 °F 22.2 °F 24.8 °F 86% 29.70 in 10.0 mi SSW 5.8 mph - N/A   Clear
7:34 AM 28.4 °F 23.3 °F 24.8 °F 86% 29.69 in 10.0 mi South 4.6 mph - N/A   Scattered Clouds
7:54 AM 28.4 °F - 24.8 °F 86% 29.69 in 10.0 mi Calm Calm - N/A   Scattered Clouds
8:14 AM 28.4 °F 23.3 °F 26.6 °F 93% 29.69 in 10.0 mi South 4.6 mph - N/A   Clear
8:34 AM 30.2 °F 25.4 °F 26.6 °F 86% 29.69 in 10.0 mi South 4.6 mph - N/A   Clear
8:54 AM 30.2 °F 24.3 °F 26.6 °F 86% 29.68 in 10.0 mi South 5.8 mph - N/A   Clear
9:14 AM 30.2 °F 22.6 °F 26.6 °F 86% 29.68 in 10.0 mi South 8.1 mph - N/A   Clear
9:34 AM 32.0 °F 24.2 °F 28.4 °F 87% 29.67 in 10.0 mi South 9.2 mph - N/A   Clear
9:54 AM 33.8 °F 28.6 °F 28.4 °F 81% 29.66 in 10.0 mi South 5.8 mph - N/A   Clear
10:14 AM 33.8 °F 29.6 °F 30.2 °F 87% 29.66 in 10.0 mi South 4.6 mph - N/A   Clear
10:34 AM 35.6 °F 28.0 °F 30.2 °F 81% 29.66 in 10.0 mi SSW 10.4 mph - N/A   Clear
10:54 AM 37.4 °F 30.3 °F 32.0 °F 81% 29.66 in 10.0 mi SSW 10.4 mph - N/A   Clear
11:14 AM 39.2 °F 32.0 °F 33.8 °F 81% 29.65 in 10.0 mi SSW 11.5 mph 16.1 mph N/A   Clear
11:34 AM 39.2 °F 30.8 °F 32.0 °F 75% 29.64 in 10.0 mi SSW 15.0 mph 23.0 mph N/A   Clear
11:54 AM 37.4 °F 28.9 °F 32.0 °F 81% 29.64 in 10.0 mi SW 13.8 mph 24.2 mph N/A   Clear
12:14 PM 37.4 °F 29.8 °F 32.0 °F 81% 29.62 in 10.0 mi SSW 11.5 mph 18.4 mph N/A   Clear
12:34 PM 39.2 °F 32.0 °F 33.8 °F 81% 29.60 in 10.0 mi SSW 11.5 mph 17.3 mph N/A   Clear
12:53 PM 39.2 °F 32.5 °F 33.8 °F 81% 29.59 in 10.0 mi SSW 10.4 mph - N/A   Clear
1:14 PM 41.0 °F 35.8 °F 33.8 °F 76% 29.57 in 10.0 mi South 8.1 mph - N/A   Clear
1:34 PM 42.8 °F 38.6 °F 33.8 °F 70% 29.57 in 10.0 mi South 6.9 mph - N/A   Clear
1:54 PM 42.8 °F 38.0 °F 35.6 °F 76% 29.56 in 10.0 mi South 8.1 mph - N/A   Clear
2:14 PM 42.8 °F 37.0 °F 35.6 °F 76% 29.54 in 10.0 mi South 10.4 mph - N/A   Clear
2:34 PM 44.6 °F 39.7 °F 35.6 °F 71% 29.53 in 10.0 mi SSW 9.2 mph - N/A   Clear
2:54 PM 44.6 °F 39.2 °F 35.6 °F 71% 29.53 in 10.0 mi South 10.4 mph 16.1 mph N/A   Clear
3:14 PM 44.6 °F 39.7 °F 35.6 °F 71% 29.52 in 10.0 mi SSW 9.2 mph 16.1 mph N/A   Clear
3:34 PM 44.6 °F 41.4 °F 35.6 °F 71% 29.51 in 10.0 mi South 5.8 mph - N/A   Clear
3:54 PM 44.6 °F 40.7 °F 35.6 °F 71% 29.51 in 10.0 mi South 6.9 mph - N/A   Clear
4:14 PM 42.8 °F 39.3 °F 35.6 °F 76% 29.51 in 10.0 mi South 5.8 mph - N/A   Clear
4:34 PM 42.8 °F 38.0 °F 35.6 °F 76% 29.50 in 10.0 mi South 8.1 mph - N/A   Clear
4:54 PM 39.2 °F 34.2 °F 33.8 °F 81% 29.50 in 10.0 mi South 6.9 mph - N/A   Clear
5:14 PM 39.2 °F 33.0 °F 33.8 °F 81% 29.49 in 10.0 mi SSE 9.2 mph - N/A   Clear
5:34 PM 37.4 °F 30.8 °F 33.8 °F 87% 29.49 in 10.0 mi SSE 9.2 mph - N/A   Clear
5:54 PM 39.2 °F 33.6 °F 33.8 °F 81% 29.49 in 10.0 mi South 8.1 mph - N/A   Clear
6:14 PM 39.2 °F 33.0 °F 32.0 °F 75% 29.48 in 10.0 mi SSE 9.2 mph - N/A   Clear
6:34 PM 37.4 °F 30.8 °F 32.0 °F 81% 29.48 in 10.0 mi South 9.2 mph - N/A   Clear
6:54 PM 37.4 °F 31.4 °F 32.0 °F 81% 29.48 in 10.0 mi South 8.1 mph - N/A   Clear
7:14 PM 37.4 °F 31.4 °F 32.0 °F 81% 29.47 in 10.0 mi South 8.1 mph - N/A   Clear
7:34 PM 39.2 °F 33.0 °F 33.8 °F 81% 29.46 in 10.0 mi SSE 9.2 mph - N/A   Mostly Cloudy
7:54 PM 39.2 °F 33.0 °F 33.8 °F 81% 29.46 in 10.0 mi South 9.2 mph - N/A   Overcast
8:14 PM 41.0 °F 35.8 °F 35.6 °F 81% 29.45 in 10.0 mi South 8.1 mph - N/A Rain Light Rain
8:34 PM 41.0 °F 35.2 °F 37.4 °F 87% 29.45 in 10.0 mi South 9.2 mph - N/A   Overcast
8:54 PM 42.8 °F 38.6 °F 37.4 °F 81% 29.44 in 10.0 mi South 6.9 mph - N/A   Drizzle
9:14 PM 41.0 °F 35.8 °F 37.4 °F 87% 29.43 in 10.0 mi SSE 8.1 mph - N/A Rain Rain
9:34 PM 42.8 °F 36.6 °F 37.4 °F 81% 29.43 in 10.0 mi South 11.5 mph - N/A   Overcast
9:54 PM 42.8 °F 36.6 °F 39.2 °F 87% 29.42 in 10.0 mi South 11.5 mph - N/A   Mostly Cloudy
10:14 PM 42.8 °F 36.6 °F 39.2 °F 87% 29.41 in 10.0 mi South 11.5 mph 18.4 mph N/A   Mostly Cloudy
10:34 PM 42.8 °F 38.0 °F 37.4 °F 81% 29.41 in 10.0 mi South 8.1 mph - N/A   Overcast
10:54 PM 42.8 °F 38.0 °F 37.4 °F 81% 29.41 in 10.0 mi South 8.1 mph - N/A   Overcast
11:14 PM 42.8 °F 38.0 °F 37.4 °F 81% 29.40 in 10.0 mi South 8.1 mph - N/A   Overcast
11:34 PM 44.6 °F 38.8 °F 37.4 °F 76% 29.39 in 10.0 mi South 11.5 mph - N/A   Overcast
11:54 PM 44.6 °F 38.4 °F 37.4 °F 76% 29.39 in 10.0 mi South 12.7 mph 20.7 mph N/A   Overcast